Chicopee, MA

12:25 PM EST on November 22, 2019 (GMT -0500)
Westover Air Reserve Base / Metropolitan Airport

Weather History for KCEF - October, 2019

Change the Weather History Date:

Monday, October 21, 2019

  Actual Average Record
Temperature  
Mean Temperature 53 °F -  
Max Temperature 66 °F 56 °F 77 °F (2016)
Min Temperature 40 °F 36 °F 27 °F (2018)
Degree Days  
Heating Degree Days 12    
Growing Degree Days 3 (Base 50)    
Moisture  
Dew Point 46 °F    
Average Humidity 84    
Maximum Humidity 100    
Minimum Humidity 49    
Precipitation  
Precipitation 0.00 in - - ()
Sea Level Pressure  
Sea Level Pressure 30.10 in    
Wind  
Wind Speed 4 mph ()    
Max Wind Speed 10 mph    
Max Gust Speed -    
Visibility 9.0 miles    
Events Fog    
Averages and records for this station are not official NWS values.
T = Trace of Precipitation, MM = Missing Value Source: Averaged Metar Reports

Daily Weather History Graph

Daily Weather History Graph

Search for Another Location

Airport or City:

Astronomy

Oct. 21, 2019 Rise Set
Actual Time 7:09 AM EDT 5:59 PM EDT
Civil Twilight 6:41 AM EDT 6:27 PM EDT
Nautical Twilight 6:08 AM EDT 7:00 PM EDT
Astronomical Twilight 5:35 AM EDT 7:32 PM EDT
Moon No Moon Rise 2:29 PM EDT (10/21)
Length of Visible Light 11h 46m
Length of Day
10h 49m
Waning Gibbous, 48% of the Moon is Illuminated
Oct 21
Waning Gibbous
Oct 27
New
Nov 4
First Quarter
Nov 12
Full
Nov 19
Last Quarter

Hourly Weather History & Observations

Time (EDT) Temp. Windchill Dew Point Humidity Pressure Visibility Wind Dir Wind Speed Gust Speed Precip Events Conditions
12:56 AM 50.0 °F - 49.5 °F 98% 30.04 in 10.0 mi NE 4.6 mph - N/A   Overcast
1:56 AM 50.0 °F - 49.5 °F 98% 30.05 in 10.0 mi NNE 4.6 mph - N/A   Overcast
2:56 AM 48.7 °F - 47.7 °F 96% 30.05 in 10.0 mi NNE 5.8 mph - N/A   Mostly Cloudy
3:56 AM 47.5 °F - 46.9 °F 98% 30.05 in 10.0 mi North 6.9 mph - N/A   Clear
4:56 AM 43.5 °F 41.9 °F 43.0 °F 98% 30.05 in 7.0 mi North 3.5 mph - N/A   Clear
5:56 AM 43.7 °F 42.1 °F 43.5 °F 99% 30.07 in 10.0 mi ENE 3.5 mph - N/A   Clear
6:56 AM 40.6 °F 38.6 °F 40.5 °F 99% 30.09 in 10.0 mi NNE 3.5 mph - N/A Fog Shallow Fog
7:44 AM 41.0 °F - 41.0 °F 100% 30.12 in 3.0 mi Calm Calm - N/A   Partly Cloudy
7:56 AM 42.4 °F - 42.3 °F 99% 30.12 in 3.0 mi Calm Calm - N/A   Partly Cloudy
8:56 AM 45.5 °F 40.8 °F 45.3 °F 99% 30.12 in 4.0 mi NNE 9.2 mph - N/A   Scattered Clouds
9:56 AM 48.9 °F - 48.6 °F 99% 30.11 in 10.0 mi NNE 6.9 mph - N/A   Scattered Clouds
10:56 AM 52.3 °F - 47.7 °F 84% 30.12 in 10.0 mi North 10.4 mph - N/A   Partly Cloudy
11:56 AM 57.0 °F - 46.9 °F 69% 30.11 in 10.0 mi NNW 6.9 mph - N/A   Partly Cloudy
12:56 PM 61.0 °F - 46.6 °F 59% 30.10 in 10.0 mi North 10.4 mph - N/A   Partly Cloudy
1:56 PM 63.9 °F - 46.9 °F 54% 30.09 in 10.0 mi North 4.6 mph - N/A   Clear
2:56 PM 65.3 °F - 46.8 °F 51% 30.07 in 10.0 mi North 9.2 mph - N/A   Clear
3:56 PM 66.6 °F - 46.8 °F 49% 30.08 in 10.0 mi NNW 5.8 mph - N/A   Clear
4:56 PM 64.8 °F - 45.3 °F 49% 30.08 in 10.0 mi NNW 4.6 mph - N/A   Clear
5:56 PM 61.2 °F - 45.9 °F 57% 30.10 in 10.0 mi NNW 4.6 mph - N/A   Partly Cloudy
6:56 PM 55.2 °F - 45.0 °F 68% 30.11 in 10.0 mi Variable 2.3 mph - N/A   Partly Cloudy
7:56 PM 48.7 °F - 45.9 °F 90% 30.14 in 10.0 mi Calm Calm - N/A   Partly Cloudy
8:56 PM 47.3 °F - 45.7 °F 94% 30.15 in 10.0 mi Calm Calm - N/A   Clear
9:56 PM 45.5 °F - 44.4 °F 96% 30.15 in 10.0 mi Calm Calm - N/A   Clear
10:56 PM 43.7 °F - 42.4 °F 95% 30.15 in 9.0 mi Calm Calm - N/A   Clear
11:56 PM 44.2 °F - 43.7 °F 98% 30.16 in 10.0 mi Calm Calm - N/A   Clear